Terminal Aerodrome Forecast
Issued by NWS Bismarck, ND

Home | Current Version | Previous Version | Graphics & Text | Print | Product List | Glossary On
Versions: 1 2 3 4 5 6 7 8 9 10 11 12 13 14
000
FTUS43 KBIS 282320
TAFISN
TAF
KISN 282320Z 2900/2924 13007KT P6SM SKC
     FM291700 14012KT P6SM SKC=

USA.gov is the U.S. government's official web portal to all federal, state and local government web resources and services.